Temp
52 52 52 50 50 51 51 52 52 54 56 55 56 56 55 53 52 51 50 50 50 50
48 49 50 49 49 51 49 48 48 49 51 55 55 55 55 54 52 51 50 50 50 48
47 47 48 48 48 48 48 46 45 45 47 47 49 51 52 53 53 51 50 49 48 48
46 46 46 47 47 47 46 45 45 45 45 46 46 48 49 50 50 49 49 48 46 46
46 45 45 45 46 45 45 44 44 42 43 46 47 47 47 47 48 47 46 46 45 44
44 44 44 44 44 44 43 42 41 41 41 43 44 45 46 46 46 46 47 46 45 44
42 43 43 43 43 42 42 41 40 39 41 41 41 42 44 44 44 44 44 44 44 44
41 40 40 39 38 38 37 39 39 38 37 38 38 40 40 41 41 41 41 41 41 41
36 35 36 35 35 35 36 36 35 35 35 35 38 41 41 40 38 38 38 38 37 37
34 34 35 34 34 34 34 34 34 34 33 34 35 40 40 40 36 36 36 37 36 34
32 32 33 33 33 32 31 31 32 32 31 32 32 38 40 39 36 35 35 35 35 34
31 31 30 30 31 31 30 29 29 29 27 27 29 37 38 38 34 34 33 34 34 34
30 28 29 29 29 27 23 28 27 28 26 26 31 35 37 37 34 33 32 31 31 32
28 26 26 26 23 22 23 24 23 24 26 25 26 31 36 38 33 33 31 30 29 30
MSLP
1016.20 1016.51 1016.77 1016.96 1017.18 1017.33 1017.38 1017.47 1017.59 1017.67 1017.68 1017.90 1018.08 1018.28 1018.52 1018.96 1019.32 1019.54 1019.77 1019.86 1020.26 1020.54
1016.23 1016.32 1016.42 1016.57 1016.64 1016.63 1016.60 1016.70 1016.99 1017.22 1017.39 1017.38 1017.52 1017.71 1018.03 1018.30 1018.49 1018.78 1018.95 1019.06 1019.34 1019.38
1016.07 1015.96 1015.94 1016.06 1016.07 1016.14 1016.27 1016.44 1016.63 1016.80 1016.86 1017.01 1017.32 1017.47 1017.64 1017.61 1017.75 1017.93 1018.02 1018.28 1018.54 1018.72
1016.29 1016.11 1015.90 1015.81 1015.80 1015.90 1015.99 1016.12 1016.16 1016.29 1016.38 1016.45 1016.64 1017.02 1017.17 1017.14 1017.13 1017.01 1017.07 1017.16 1017.36 1017.59
1016.26 1016.17 1016.10 1016.02 1015.82 1015.87 1015.73 1015.85 1015.90 1015.89 1015.95 1016.07 1016.22 1016.48 1016.51 1016.42 1016.36 1016.32 1016.49 1016.46 1016.57 1016.65
1016.43 1016.34 1016.15 1015.91 1015.70 1015.49 1015.38 1015.37 1015.40 1015.43 1015.41 1015.36 1015.34 1015.38 1015.29 1015.27 1015.20 1015.29 1015.23 1015.43 1015.50 1015.70
1016.84 1016.45 1016.03 1015.68 1015.44 1015.28 1015.14 1015.08 1014.88 1014.74 1014.69 1014.61 1014.71 1014.72 1014.67 1014.69 1014.64 1014.53 1014.54 1014.66 1014.59 1014.73
1016.89 1016.48 1016.22 1015.87 1015.41 1015.14 1015.04 1014.70 1014.40 1014.36 1014.07 1014.00 1013.95 1013.98 1013.96 1013.81 1013.81 1013.87 1013.95 1014.01 1014.08 1014.19
1017.26 1016.80 1016.12 1015.80 1015.47 1014.99 1014.55 1014.29 1014.23 1014.12 1013.91 1013.57 1013.29 1013.02 1012.92 1013.09 1013.21 1013.25 1013.24 1013.28 1013.34 1013.44
1017.55 1017.10 1016.55 1015.90 1015.45 1014.99 1014.49 1014.00 1013.73 1013.56 1013.44 1013.19 1012.95 1012.85 1012.69 1012.71 1012.55 1012.50 1012.51 1012.61 1012.97 1013.19
1017.82 1017.33 1016.59 1016.01 1015.58 1015.12 1014.50 1014.02 1013.42 1013.06 1012.84 1012.64 1012.40 1012.22 1012.26 1012.19 1012.29 1012.17 1012.09 1012.17 1012.22 1012.56
1017.89 1017.25 1016.61 1016.12 1015.48 1014.96 1014.71 1014.28 1013.84 1013.30 1012.75 1012.36 1011.91 1011.66 1011.64 1011.73 1012.02 1011.93 1012.10 1011.88 1011.72 1012.20
1017.88 1017.32 1016.62 1016.05 1015.62 1015.01 1014.62 1014.03 1013.67 1013.30 1012.83 1012.54 1011.75 1011.08 1010.82 1011.12 1011.51 1011.58 1011.56 1011.65 1011.99 1011.88
1017.51 1017.10 1016.50 1015.83 1015.30 1015.03 1014.49 1014.05 1013.66 1013.08 1012.73 1012.27 1011.86 1011.41 1011.04 1010.54 1010.56 1011.06 1011.54 1011.68 1011.78 1011.61
Wind_Speed
6 4 4 5 5 6 6 8 8 10 11 11 9 11 10 9 11 14 15 19 17 12
6 6 6 8 6 7 7 5 7 9 11 13 13 12 11 10 11 12 13 15 16 14
6 7 7 6 9 8 7 7 7 8 9 9 10 11 12 12 13 12 10 10 14 14
6 7 6 7 6 6 6 6 8 8 9 10 10 9 11 13 13 13 13 13 13 15
6 6 6 6 6 5 7 6 7 7 9 10 10 11 12 14 12 14 13 13 13 15
7 7 7 7 7 6 7 7 7 7 9 10 13 13 13 15 14 14 15 14 14 15
8 8 7 7 7 7 6 7 7 8 10 10 11 12 13 13 13 13 13 13 13 13
8 6 7 7 7 7 7 7 7 7 8 8 9 8 11 12 12 12 12 11 11 11
10 10 9 8 8 7 7 7 6 7 9 9 8 14 18 15 11 11 11 11 9 8
8 10 11 9 8 8 7 6 7 7 7 9 8 13 16 18 10 9 10 10 8 6
7 9 9 9 10 9 6 7 6 6 6 7 5 14 15 15 11 8 8 8 9 9
9 10 9 9 9 8 7 6 6 6 6 6 5 12 12 11 5 7 8 6 7 8
9 9 10 9 9 4 3 7 5 7 6 7 6 9 10 9 4 7 5 4 5 11
7 8 8 7 3 4 5 5 5 5 5 5 5 6 10 9 4 5 4 4 3 3
Wind_Direction
225 221 227 202 197 216 211 213 204 212 217 216 212 213 209 207 213 210 215 215 216 223
233 215 216 216 212 220 215 210 202 206 216 228 228 225 224 227 221 219 217 227 227 220
248 231 229 220 226 224 228 214 205 210 212 214 224 229 230 237 241 232 226 226 226 226
284 272 253 242 248 241 237 212 216 215 217 220 219 223 230 236 239 235 234 225 221 225
301 292 280 269 261 241 241 227 224 216 222 227 230 230 228 235 232 233 232 232 226 229
312 306 289 280 273 255 249 243 236 223 225 223 225 226 223 229 230 231 234 232 229 231
327 316 298 289 281 272 263 258 251 235 234 228 230 231 232 233 235 235 236 236 234 230
324 315 308 301 292 282 269 261 250 247 241 237 226 227 228 227 229 233 238 234 235 235
331 328 326 319 311 298 285 274 265 257 250 245 240 235 226 223 227 230 232 238 231 228
327 326 323 318 312 304 296 284 276 266 255 255 250 248 238 232 232 228 230 235 237 221
315 314 315 315 310 305 295 290 279 269 255 256 245 248 248 239 239 236 235 228 217 217
317 310 310 308 310 307 297 298 288 280 276 248 243 259 260 251 239 244 248 229 210 206
304 301 306 304 305 287 271 285 295 298 278 273 269 260 252 257 228 248 230 212 221 206
287 288 282 290 271 280 295 298 299 297 290 293 272 287 284 263 221 226 235 214 208 201